Snowfall_Accumulation
nan nan nan nan nan nan nan nan nan nan nan nan nan nan nan nan nan 0.0 0.0 0.0 0.0 nan nan 0.0 0.0 0.0 0.0 0.0 0.0 0.0 0.0 0.0 0.0 0.0 0.0 0.0 0.0 0.0 0.0 0.0 0.0 0.0 0.0 0.0 0.0
nan nan nan nan nan nan nan nan nan nan nan nan nan nan nan nan 0.0 0.0 nan nan nan nan 0.0 0.0 0.0 0.0 0.0 0.0 0.0 0.0 0.0 0.0 0.0 0.0 0.0 0.0 0.0 0.0 0.0 0.0 0.0 0.0 0.0 0.0 0.0
nan nan nan nan nan nan nan nan nan nan nan nan nan nan nan 0.0 0.0 0.0 nan nan nan 0.0 0.0 0.0 0.0 0.0 0.0 0.0 0.0 0.0 0.0 0.0 0.0 0.0 0.0 0.0 0.0 0.0 0.0 0.0 0.0 0.0 0.0 0.0 0.0
nan nan nan nan nan nan nan nan nan nan nan nan nan nan nan 0.0 0.0 0.0 nan nan nan 0.0 0.0 0.0 0.0 0.0 0.0 0.0 0.0 0.0 0.0 0.0 0.0 0.0 0.0 0.0 0.0 0.0 0.0 0.0 0.0 0.0 0.0 0.0 0.0
nan nan nan nan nan nan nan nan nan nan nan nan nan nan 0.0 0.0 0.0 0.0 nan nan 0.0 0.0 0.0 0.0 0.0 0.0 0.0 0.0 0.0 0.0 0.0 0.0 0.0 0.0 0.0 0.0 0.0 0.0 0.0 0.0 0.0 0.0 0.0 0.0 0.0
nan nan nan nan nan nan nan nan nan nan nan nan nan nan 0.0 0.0 0.0 0.0 0.0 0.0 0.0 0.0 0.0 0.0 0.0 0.0 0.0 0.0 0.0 0.0 0.0 0.0 0.0 0.0 0.0 0.0 0.0 0.0 0.0 0.0 0.0 0.0 0.0 0.0 0.0
nan nan nan nan nan nan nan nan nan nan nan nan nan 0.0 0.0 0.0 0.0 0.0 0.0 0.0 0.0 0.0 0.0 0.0 0.0 0.0 0.0 0.0 0.0 0.0 0.0 0.0 0.0 0.0 0.0 0.0 0.0 0.0 0.0 0.0 0.0 0.0 0.0 0.0 0.0
nan nan nan nan nan nan nan nan nan nan nan nan nan 0.0 0.0 0.0 0.0 0.0 0.0 0.0 0.0 0.0 0.0 0.0 0.0 0.0 0.0 0.0 0.0 0.0 0.0 0.0 0.0 0.0 0.0 0.0 0.0 0.0 0.0 0.0 0.0 0.0 0.0 0.0 0.0
nan nan nan nan nan nan nan nan nan nan nan nan 0.0 0.0 0.0 nan 0.0 0.0 0.0 0.0 0.0 0.0 0.0 0.0 0.0 0.0 0.0 0.0 0.0 0.0 0.0 0.0 0.0 0.0 0.0 0.0 0.0 0.0 0.0 0.0 0.0 0.0 0.0 0.0 0.0
nan nan nan nan nan nan nan nan nan nan 0.0 0.0 0.0 0.0 0.0 0.0 0.0 0.0 0.0 0.0 0.0 0.0 0.0 0.0 0.0 0.0 0.0 0.0 1.7 0.0 0.0 0.0 0.0 0.0 0.0 0.0 0.0 0.0 0.0 0.0 0.0 0.0 0.0 0.0 0.0
nan nan nan nan nan nan 0.0 0.0 0.0 0.0 0.0 0.0 0.0 0.0 0.0 0.0 0.0 0.0 0.0 0.0 0.0 0.0 0.0 0.0 0.0 0.2 0.0 0.0 0.0 0.0 0.0 0.0 0.0 0.0 0.0 0.0 0.0 0.0 0.0 0.0 0.0 0.0 0.0 0.0 0.0
nan nan nan nan nan nan 0.0 0.0 0.0 0.0 0.4 0.0 0.0 0.0 0.0 0.0 0.0 0.0 0.0 0.0 0.0 0.1 0.0 0.3 0.4 0.0 0.0 0.0 0.0 0.0 0.0 0.1 0.0 0.0 0.0 0.0 0.0 0.0 0.0 0.0 0.0 0.0 0.0 0.0 0.0
nan nan nan nan nan 0.0 0.0 0.0 0.0 0.0 1.8 0.0 0.0 0.0 0.0 0.0 0.0 0.0 0.0 0.0 0.1 0.6 0.4 0.7 0.2 0.0 0.0 0.0 0.0 0.0 0.0 0.0 0.0 0.0 0.0 0.0 0.2 0.0 0.0 0.0 0.0 0.0 0.0 0.0 0.0
nan nan nan nan nan 0.0 0.0 0.0 0.0 0.0 10.6 1.3 0.0 0.0 0.0 0.0 0.0 0.0 0.0 0.1 0.1 1.7 0.2 1.4 0.0 0.0 0.0 0.0 0.0 0.4 0.0 0.0 0.0 1.9 2.5 0.1 8.8 0.0 0.0 0.0 0.0 0.0 0.0 0.0 0.0
nan nan nan nan 0.0 0.0 0.0 0.0 0.0 0.0 52.5 0.0 0.0 0.0 0.0 0.7 0.2 0.0 0.0 0.0 1.0 0.1 3.1 3.3 0.4 0.2 1.7 0.1 0.0 0.9 0.0 0.0 0.1 1.5 2.4 0.9 6.5 0.0 0.0 0.0 0.0 0.0 0.0 0.0 0.0
nan nan nan 0.0 0.0 0.0 0.0 0.0 0.0 25.2 44.0 0.3 0.0 0.0 0.1 0.0 0.1 0.0 0.0 0.0 0.0 1.5 1.2 0.4 0.0 0.7 0.3 0.0 0.0 0.0 0.6 0.6 2.1 4.0 29.4 1.1 0.6 0.2 0.1 0.2 0.0 0.0 0.0 0.0 0.0
nan nan nan 0.0 0.0 0.0 0.0 0.0 37.1 64.4 0.2 0.1 0.3 0.1 0.2 0.6 0.9 1.2 1.2 3.7 7.8 16.8 7.7 1.7 1.4 0.2 0.0 3.5 2.4 1.4 3.7 25.2 31.1 37.7 13.9 0.1 0.5 0.2 0.1 0.1 0.1 0.1 0.0 0.0 0.0
nan nan nan 0.0 0.0 0.0 0.0 4.4 64.6 9.1 2.0 0.0 0.0 0.0 1.7 0.2 1.1 2.8 4.2 5.0 0.9 4.2 6.1 5.0 9.6 1.7 0.1 0.8 3.3 1.8 2.7 9.0 13.0 8.9 2.4 0.1 9.0 1.2 0.2 0.3 0.8 0.3 0.5 0.0 0.0
nan 0.0 0.0 0.0 0.0 0.0 1.9 52.3 20.7 0.9 0.2 0.2 0.9 1.8 0.9 0.5 1.9 1.8 2.0 2.7 1.7 1.2 14.3 8.7 2.5 0.1 0.2 0.1 0.0 7.8 14.7 0.9 12.5 7.9 10.7 2.0 0.2 0.1 0.0 0.4 0.5 1.4 0.0 0.0 0.0
0.0 0.0 0.0 0.0 0.0 0.2 15.5 nan 4.6 0.0 0.5 1.5 4.8 1.9 5.7 3.4 3.6 2.2 2.3 1.4 1.6 0.7 1.0 5.4 10.7 0.3 0.6 1.1 1.0 1.5 0.2 11.2 17.2 24.8 12.7 2.1 0.8 3.1 1.6 2.9 0.3 1.8 0.1 0.1 0.0
0.0 1.6 0.0 0.0 0.0 4.0 30.6 11.1 1.6 0.0 0.2 5.7 4.2 3.9 1.5 4.4 1.3 2.8 1.3 0.3 0.1 0.3 0.4 8.4 12.0 6.0 1.5 10.0 6.0 4.9 5.8 3.7 2.2 8.1 15.6 7.7 6.1 8.7 3.3 3.3 4.5 0.9 0.2 0.3 0.2
0.3 11.2 0.0 0.0 10.8 9.7 12.7 3.6 nan 0.3 0.2 1.3 0.9 1.8 3.2 3.6 3.4 1.6 0.7 0.2 0.0 0.1 6.0 3.1 9.3 16.6 9.9 4.7 0.7 0.4 2.6 1.2 11.0 8.9 6.0 9.4 8.5 5.8 5.8 5.8 2.5 0.7 0.3 0.2 0.2
5.0 0.8 0.0 0.0 30.9 15.5 3.9 3.3 1.0 1.2 1.3 5.3 3.4 0.7 1.9 6.6 12.4 1.5 0.5 0.2 0.0 0.6 3.5 6.2 14.1 16.7 12.7 6.3 3.0 7.7 2.1 2.2 1.8 3.5 10.3 12.7 9.0 5.2 5.7 4.0 1.8 2.4 0.8 0.6 0.6
3.2 11.9 3.2 0.4 0.5 6.1 6.5 4.7 5.8 1.1 1.9 1.3 1.7 0.4 4.4 6.8 2.1 5.8 0.8 0.3 0.1 0.2 nan nan 6.3 11.5 12.1 10.4 7.1 9.4 4.2 1.3 2.8 20.3 9.2 11.7 9.0 7.7 6.3 6.0 3.4 2.2 1.3 2.2 3.8
3.0 11.9 12.0 24.0 5.0 1.9 3.1 2.9 2.1 6.7 2.5 0.9 5.1 4.1 6.3 11.8 7.4 7.5 0.9 1.0 1.0 nan 1.3 5.4 11.1 6.7 7.4 7.2 10.7 10.1 8.5 5.5 11.5 10.0 12.1 12.3 13.0 10.6 9.6 9.6 9.5 7.2 5.3 5.5 7.3
5.7 5.5 4.2 5.5 0.5 1.3 1.9 3.2 0.7 1.4 4.8 3.9 6.3 2.5 5.3 9.8 3.8 10.8 1.5 0.6 0.4 1.8 2.5 3.4 9.1 6.5 8.3 6.6 9.7 9.2 5.6 5.0 4.0 3.4 7.0 8.7 12.3 11.7 13.7 12.4 12.2 12.4 10.5 12.1 12.4
0.5 1.0 5.1 nan 1.1 5.3 1.8 1.2 1.1 1.1 0.1 0.0 0.7 2.7 5.3 3.2 1.6 0.6 0.9 1.2 1.6 3.4 2.9 4.6 7.7 11.5 19.2 5.4 4.7 15.1 17.9 8.7 11.5 8.2 5.2 13.5 14.9 17.5 19.3 15.8 14.9 14.2 14.7 14.3 14.5
Water_Equivalent
nan nan nan nan nan nan nan nan nan nan nan nan nan nan nan nan nan 0.00 0.00 0.00 0.00 nan nan 0.00 0.00 0.00 0.00 0.00 0.00 0.00 0.00 0.00 0.00 0.00 0.00 0.00 0.00 0.00 0.00 0.00 0.00 0.00 0.00 0.00 0.00
nan nan nan nan nan nan nan nan nan nan nan nan nan nan nan nan 0.00 0.00 nan nan nan nan 0.00 0.00 0.00 0.00 0.00 0.00 0.00 0.00 0.00 0.00 0.00 0.00 0.00 0.00 0.00 0.00 0.00 0.00 0.00 0.00 0.00 0.00 0.00
nan nan nan nan nan nan nan nan nan nan nan nan nan nan nan 0.00 0.00 0.00 nan nan nan 0.00 0.00 0.00 0.00 0.00 0.00 0.00 0.00 0.00 0.00 0.00 0.00 0.00 0.00 0.00 0.00 0.00 0.00 0.00 0.00 0.00 0.00 0.00 0.00
nan nan nan nan nan nan nan nan nan nan nan nan nan nan nan 0.00 0.00 0.00 nan nan nan 0.00 0.00 0.00 0.00 0.00 0.00 0.00 0.00 0.00 0.00 0.00 0.00 0.00 0.00 0.00 0.00 0.00 0.00 0.00 0.00 0.00 0.00 0.00 0.00
nan nan nan nan nan nan nan nan nan nan nan nan nan nan 0.00 0.00 0.00 0.00 nan nan 0.00 0.00 0.00 0.00 0.00 0.00 0.00 0.00 0.00 0.00 0.00 0.00 0.00 0.00 0.00 0.00 0.00 0.00 0.00 0.00 0.00 0.00 0.00 0.00 0.00
nan nan nan nan nan nan nan nan nan nan nan nan nan nan 0.00 0.00 0.00 0.00 0.00 0.00 0.00 0.00 0.00 0.00 0.00 0.00 0.00 0.00 0.00 0.00 0.00 0.00 0.00 0.00 0.00 0.00 0.00 0.00 0.00 0.00 0.00 0.00 0.00 0.00 0.00
nan nan nan nan nan nan nan nan nan nan nan nan nan 0.00 0.00 0.00 0.00 0.00 0.00 0.00 0.00 0.00 0.00 0.00 0.00 0.00 0.00 0.00 0.00 0.00 0.00 0.00 0.00 0.00 0.00 0.00 0.00 0.00 0.00 0.00 0.00 0.00 0.00 0.00 0.00
nan nan nan nan nan nan nan nan nan nan nan nan nan 0.00 0.00 0.00 0.00 0.00 0.00 0.00 0.00 0.00 0.00 0.00 0.00 0.00 0.00 0.00 0.00 0.00 0.00 0.00 0.00 0.00 0.00 0.00 0.00 0.00 0.00 0.00 0.00 0.00 0.00 0.00 0.00
nan nan nan nan nan nan nan nan nan nan nan nan 0.00 0.00 0.00 nan 0.00 0.00 0.00 0.00 0.00 0.00 0.00 0.00 0.00 0.00 0.00 0.00 0.01 0.00 0.00 0.00 0.00 0.00 0.00 0.00 0.00 0.00 0.00 0.00 0.00 0.00 0.00 0.00 0.00
nan nan nan nan nan nan nan nan nan nan 0.00 0.00 0.00 0.00 0.00 0.00 0.00 0.00 0.00 0.00 0.00 0.00 0.00 0.00 0.00 0.00 0.00 0.00 0.48 0.00 0.00 0.00 0.00 0.00 0.00 0.00 0.00 0.00 0.00 0.00 0.00 0.00 0.00 0.00 0.00
nan nan nan nan nan nan 0.00 0.00 0.00 0.00 0.00 0.00 0.00 0.00 0.00 0.00 0.00 0.00 0.00 0.00 0.00 0.00 0.00 0.00 0.01 0.05 0.00 0.00 0.00 0.00 0.00 0.00 0.00 0.00 0.00 0.00 0.00 0.00 0.00 0.00 0.00 0.00 0.00 0.00 0.00
nan nan nan nan nan nan 0.00 0.00 0.00 0.00 0.09 0.00 0.00 0.00 0.00 0.00 0.00 0.00 0.00 0.00 0.00 0.03 0.00 0.06 0.07 0.00 0.00 0.00 0.00 0.00 0.00 0.02 0.00 0.00 0.00 0.00 0.00 0.00 0.00 0.00 0.00 0.00 0.00 0.00 0.00
nan nan nan nan nan 0.00 0.00 0.00 0.00 0.00 0.35 0.00 0.00 0.00 0.00 0.00 0.00 0.00 0.00 0.01 0.02 0.11 0.10 0.13 0.04 0.00 0.00 0.00 0.00 0.00 0.01 0.00 0.00 0.00 0.00 0.00 0.04 0.00 0.00 0.00 0.00 0.00 0.00 0.00 0.00
nan nan nan nan nan 0.00 0.00 0.00 0.00 0.00 2.06 0.27 0.00 0.00 0.00 0.00 0.01 0.00 0.00 0.01 0.01 0.33 0.04 0.32 0.00 0.00 0.00 0.00 0.00 0.09 0.00 0.00 0.00 0.37 0.40 0.03 1.20 0.00 0.00 0.00 0.00 0.00 0.00 0.00 0.00
nan nan nan nan 0.00 0.00 0.00 0.00 0.00 0.01 8.40 0.00 0.00 0.00 0.00 0.11 0.04 0.01 0.00 0.00 0.20 0.03 0.60 0.58 0.09 0.03 0.33 0.01 0.00 0.21 0.00 0.00 0.02 0.31 0.36 0.14 0.89 0.00 0.00 0.00 0.00 0.00 0.00 0.00 0.00
nan nan nan 0.00 0.00 0.00 0.00 0.00 0.00 5.77 8.19 0.06 0.00 0.01 0.02 0.00 0.02 0.01 0.00 0.00 0.00 0.32 0.26 0.08 0.00 0.16 0.08 0.00 0.00 0.01 0.11 0.11 0.39 0.65 4.14 0.18 0.10 0.03 0.03 0.04 0.00 0.00 0.00 0.00 0.00
nan nan nan 0.00 0.01 0.00 0.00 0.00 9.24 14.59 0.07 0.02 0.10 0.02 0.05 0.13 0.21 0.37 0.27 0.68 1.19 2.52 1.02 0.31 0.27 0.05 0.00 0.60 0.48 0.28 0.59 3.69 4.81 5.62 2.04 0.02 0.09 0.04 0.01 0.02 0.02 0.01 0.00 0.01 0.00
nan nan nan 0.00 0.00 0.00 0.00 0.70 15.45 2.77 0.52 0.00 0.01 0.01 0.29 0.05 0.20 0.55 0.85 0.73 0.18 0.83 1.06 0.90 1.71 0.29 0.03 0.14 0.55 0.29 0.46 1.27 1.37 1.12 0.42 0.01 1.27 0.23 0.05 0.06 0.14 0.06 0.11 0.00 0.00
nan 0.00 0.00 0.00 0.00 0.00 0.39 13.24 5.41 0.23 0.04 0.03 0.11 0.29 0.18 0.08 0.34 0.30 0.35 0.54 0.30 0.22 2.11 1.37 0.46 0.03 0.04 0.03 0.01 1.19 2.01 0.15 1.51 1.02 1.11 0.39 0.04 0.02 0.01 0.08 0.09 0.22 0.00 0.00 0.00
0.00 0.00 0.00 0.00 0.00 0.08 3.64 nan 1.68 0.01 0.08 0.21 0.67 0.33 1.21 0.55 0.55 0.32 0.33 0.23 0.25 0.12 0.16 0.90 1.57 0.05 0.11 0.24 0.21 0.27 0.03 1.43 2.55 2.98 1.37 0.30 0.13 0.54 0.25 0.43 0.05 0.27 0.03 0.02 0.01
0.01 0.41 0.00 0.00 0.00 0.70 8.57 3.45 0.50 0.00 0.03 1.00 0.82 0.61 0.25 0.90 0.20 0.41 0.20 0.05 0.03 0.06 0.08 1.61 1.83 0.84 0.25 2.02 1.20 0.77 0.84 0.56 0.34 1.15 1.82 0.91 1.02 1.80 0.44 0.43 0.51 0.14 0.04 0.05 0.03
0.08 3.56 0.00 0.00 3.10 3.29 3.68 1.15 nan 0.07 0.05 0.20 0.13 0.29 0.63 0.71 0.60 0.23 0.13 0.03 0.00 0.02 1.00 0.57 1.47 2.27 1.78 0.98 0.13 0.08 0.52 0.21 1.72 1.17 0.90 1.21 1.00 1.04 0.74 0.73 0.35 0.10 0.06 0.04 0.05
0.97 0.18 0.00 0.00 8.37 4.90 1.24 0.60 0.17 0.23 0.25 0.75 0.54 0.13 0.37 1.26 2.03 0.28 0.08 0.04 0.00 0.12 0.57 1.09 1.91 2.44 1.96 1.05 0.44 1.11 0.33 0.38 0.25 0.58 1.41 1.77 1.27 0.74 0.73 0.58 0.29 0.34 0.14 0.10 0.11
0.64 3.33 1.11 0.14 0.18 0.96 1.13 0.94 1.19 0.20 0.31 0.21 0.25 0.07 0.80 1.21 0.37 1.05 0.14 0.06 0.03 0.05 nan nan 0.88 1.39 1.63 1.60 1.30 1.20 0.57 0.18 0.42 3.40 1.48 1.33 1.18 1.01 0.79 0.78 0.50 0.39 0.21 0.31 0.51
0.60 3.46 4.66 7.60 1.55 0.33 0.48 0.49 0.42 1.15 0.39 0.20 0.80 0.73 0.99 1.67 1.07 1.19 0.15 0.17 0.19 nan 0.29 0.94 1.62 0.77 0.94 0.94 1.57 1.53 1.08 0.63 1.30 1.28 1.53 1.50 1.30 1.32 1.22 1.15 1.18 1.02 0.71 0.63 0.84
0.91 0.99 1.01 1.77 0.09 0.23 0.34 0.50 0.11 0.23 0.69 0.63 1.01 0.47 0.86 1.44 0.69 1.59 0.24 0.10 0.07 0.32 0.41 0.56 1.59 0.73 1.11 0.92 1.35 1.27 0.71 0.66 0.48 0.43 0.86 1.08 1.36 1.74 1.65 1.43 1.47 1.59 1.14 1.17 1.30
0.10 0.20 0.86 nan 0.26 1.04 0.39 0.17 0.17 0.18 0.02 0.00 0.11 0.46 0.75 0.55 0.30 0.12 0.17 0.23 0.29 0.53 0.44 0.70 1.06 2.32 3.85 0.66 0.56 2.74 2.06 1.03 1.37 1.09 0.69 1.41 2.51 2.63 2.57 1.74 1.79 1.60 1.50 1.53 1.89
SL_Ratio
nan nan nan nan nan nan nan nan nan nan nan nan nan nan nan nan nan nan nan nan nan nan nan nan nan nan nan nan nan nan nan nan nan nan nan nan nan nan nan nan nan nan nan nan nan
nan nan nan nan nan nan nan nan nan nan nan nan nan nan nan nan nan nan nan nan nan nan nan nan nan nan nan nan nan nan nan nan nan nan nan nan nan nan nan nan nan nan nan nan nan
nan nan nan nan nan nan nan nan nan nan nan nan nan nan nan nan nan nan nan nan nan nan nan nan nan nan nan nan nan nan nan nan nan nan nan nan nan nan nan nan nan nan nan nan nan
nan nan nan nan nan nan nan nan nan nan nan nan nan nan nan nan nan nan nan nan nan nan nan nan nan nan nan nan nan nan nan nan nan nan nan nan nan nan nan nan nan nan nan nan nan
nan nan nan nan nan nan nan nan nan nan nan nan nan nan nan nan nan nan nan nan nan nan nan nan nan nan nan nan nan nan nan nan nan nan nan nan nan nan nan nan nan nan nan nan nan
nan nan nan nan nan nan nan nan nan nan nan nan nan nan nan nan nan nan nan nan nan nan nan nan nan nan nan nan nan nan nan nan nan nan nan nan nan nan nan nan nan nan nan nan nan
nan nan nan nan nan nan nan nan nan nan nan nan nan nan nan nan nan nan nan nan nan nan nan nan nan nan nan nan nan nan nan nan nan nan nan nan nan nan nan nan nan nan nan nan nan
nan nan nan nan nan nan nan nan nan nan nan nan nan nan nan nan nan nan nan nan nan nan nan nan nan nan nan nan nan nan nan nan nan nan nan nan 5.0 nan nan nan nan nan nan nan nan
nan nan nan nan nan nan nan nan nan nan nan nan nan nan nan nan nan nan nan nan nan nan nan nan nan nan nan nan 3.3 nan nan nan nan nan nan nan nan nan nan nan nan nan nan nan nan
nan nan nan nan nan nan nan nan nan nan nan nan nan nan nan nan nan nan nan nan nan nan nan nan nan nan nan nan 3.6 2.5 5.0 nan nan nan nan nan nan nan nan nan nan nan nan nan nan
nan nan nan nan nan nan nan nan nan nan nan nan nan nan nan nan nan nan nan nan nan nan nan nan 5.0 3.2 nan nan nan nan nan nan nan nan nan nan nan nan nan nan nan nan nan nan nan
nan nan nan nan nan nan nan nan nan 5.0 5.0 nan nan nan nan nan nan nan nan 0.0 nan 3.9 5.0 4.6 6.0 nan nan nan nan nan 5.0 4.1 nan nan 0.0 nan nan nan nan nan nan nan nan nan nan
nan nan nan nan nan nan nan nan nan nan 5.0 nan nan nan nan nan nan nan nan 6.3 4.3 5.2 4.3 5.1 5.3 nan nan nan nan 5.0 5.0 2.5 nan nan nan 5.0 4.7 4.0 nan nan nan nan nan nan nan
nan nan nan nan nan nan nan nan nan nan 5.1 4.8 nan nan nan nan 5.4 nan nan 6.5 5.0 5.1 4.4 4.4 3.6 nan nan nan nan 4.5 nan nan 3.0 5.1 6.4 4.3 7.3 nan nan nan nan nan nan nan nan
nan nan nan nan nan nan nan nan nan 5.6 6.3 nan nan nan nan 6.0 4.1 6.3 nan 6.3 5.4 5.1 5.1 5.7 4.7 5.8 5.2 6.0 nan 4.5 nan 2.5 3.9 4.6 6.6 6.4 7.3 5.0 nan nan nan nan nan nan nan
nan nan nan nan nan nan nan nan 5.0 4.4 5.4 5.0 nan 4.6 4.2 5.0 4.2 5.0 5.0 nan nan 4.8 4.7 4.8 nan 4.6 4.4 nan nan 4.6 5.2 5.3 5.4 6.2 7.1 6.3 5.7 5.4 5.0 5.1 nan nan nan nan nan
nan nan nan nan 3.1 nan nan nan 4.0 4.4 3.6 5.9 3.2 5.3 4.3 4.5 4.2 3.3 4.6 5.4 6.5 6.7 7.5 5.5 5.4 4.6 5.0 5.9 5.0 4.9 6.3 6.8 6.5 6.7 6.8 4.7 5.8 5.7 4.8 4.6 4.5 5.0 5.0 4.4 nan
nan nan nan nan nan nan 3.8 6.2 4.2 3.3 3.9 nan 6.1 7.0 6.0 5.3 5.7 5.1 4.9 6.8 4.9 5.0 5.8 5.6 5.6 5.8 4.0 5.5 5.9 6.5 5.9 7.1 9.5 8.0 5.7 5.0 7.1 5.0 4.7 4.8 5.3 5.5 4.9 3.8 nan
nan nan nan nan nan nan 4.8 3.9 3.8 3.8 5.3 7.6 8.2 6.1 4.9 5.5 5.5 6.2 5.8 5.1 5.7 5.3 6.8 6.4 5.3 4.9 4.3 3.7 3.5 6.6 7.3 5.8 8.3 7.7 9.7 5.0 5.7 4.7 4.3 5.1 6.0 6.5 nan 3.8 4.2
nan nan nan nan nan 2.8 4.3 nan 2.8 4.4 6.5 6.9 7.2 5.7 4.7 6.1 6.6 6.9 6.9 6.1 6.6 5.6 6.0 5.9 6.8 5.6 5.7 4.6 4.9 5.6 5.1 7.9 6.8 8.3 9.3 6.8 6.3 5.8 6.6 6.9 6.7 6.8 5.4 4.2 3.7
2.2 4.1 nan nan nan 5.7 3.6 3.2 3.2 nan 5.1 5.7 5.1 6.5 5.8 4.9 6.4 6.8 6.5 6.5 4.4 5.1 4.8 5.2 6.6 7.2 6.1 4.9 5.0 6.4 6.8 6.7 6.4 7.0 8.5 8.4 6.0 4.9 7.4 7.8 8.8 6.2 5.5 5.5 5.2
4.2 3.1 nan nan 3.5 3.0 3.4 3.2 nan 4.2 4.0 6.4 6.7 6.0 5.2 5.1 5.7 6.7 5.8 5.2 0.0 4.2 6.0 5.4 6.3 7.3 5.6 4.8 5.3 5.4 5.1 5.7 6.4 7.6 6.7 7.7 8.5 5.6 7.8 8.0 7.2 6.5 5.7 4.9 5.0
5.2 4.2 5.0 nan 3.7 3.2 3.1 5.6 5.5 5.5 5.0 7.1 6.3 5.4 4.9 5.3 6.1 5.5 6.0 4.6 5.0 5.3 6.1 5.7 7.4 6.8 6.5 6.0 6.7 6.9 6.2 5.8 7.0 6.0 7.3 7.2 7.1 7.0 7.8 6.8 6.4 6.9 6.0 5.4 5.3
5.1 3.6 2.9 3.2 3.0 6.4 5.7 5.0 4.9 5.6 6.3 6.2 6.9 5.8 5.6 5.6 5.7 5.5 5.8 5.1 4.3 4.1 nan nan 7.1 8.2 7.4 6.5 5.4 7.8 7.3 7.0 6.7 6.0 6.2 8.8 7.6 7.6 8.0 7.7 6.7 5.7 6.4 7.0 7.4
4.9 3.4 2.6 3.2 3.2 5.8 6.4 5.9 5.1 5.8 6.3 4.8 6.3 5.6 6.4 7.0 6.9 6.3 6.0 5.9 5.3 nan 4.5 5.7 6.9 8.7 7.8 7.6 6.8 6.6 7.9 8.6 8.8 7.8 7.9 8.2 10.0 8.0 7.9 8.3 8.1 7.0 7.5 8.6 8.7
6.3 5.5 4.1 3.1 5.3 5.7 5.7 6.3 6.4 5.9 7.0 6.1 6.2 5.3 6.1 6.9 5.5 6.8 6.1 6.3 6.1 5.6 6.1 6.1 5.7 8.8 7.4 7.2 7.1 7.2 7.9 7.6 8.3 7.9 8.1 8.0 9.0 6.7 8.3 8.6 8.3 7.8 9.1 10.3 9.6
5.2 5.0 5.9 nan 4.4 5.1 4.6 6.8 6.7 5.8 4.1 6.7 6.8 5.8 7.0 5.8 5.3 5.1 5.1 5.3 5.6 6.3 6.7 6.7 7.3 5.0 5.0 8.2 8.4 5.5 8.7 8.4 8.4 7.5 7.5 9.6 5.9 6.7 7.5 9.1 8.3 8.9 9.8 9.3 7.7